This is the latest recevied weather packets stored in our database for station/object WX5HOT. If no packets are shown the sender has not sent any weather packets the latest 10 day(s).
| Time | Temp. | Humidity | Pressure | Rain* | Wind** | Luminosity | Snow |
|---|---|---|---|---|---|---|---|
| 1777937546 | 20.56° C | 57% | 1059 hPa | 0 mm | - | 106 W/m² | - |
| 1777937243 | 20.56° C | 58% | 1059.2 hPa | 0 mm | - | 114 W/m² | - |
| 1777936940 | 20.56° C | 58% | 1059.1 hPa | 0 mm | - | 123 W/m² | - |
| 1777936636 | 20.56° C | 58% | 1059.3 hPa | 0 mm | - | 131 W/m² | - |
| 1777936333 | 20.56° C | 56% | 1059.3 hPa | 0 mm | - | 144 W/m² | - |
| 1777936029 | 20.56° C | 57% | 1059.3 hPa | 0 mm | - | 162 W/m² | - |
| 1777935728 | 20.56° C | 57% | 1059.3 hPa | 0 mm | - | 164 W/m² | - |
| 1777935426 | 20.56° C | 59% | 1059.2 hPa | 0 mm | - | 180 W/m² | - |
| 1777935122 | 20.56° C | 58% | 1059.3 hPa | 0 mm | - | 174 W/m² | - |
| 1777934819 | 21.11° C | 57% | 1059.6 hPa | 0 mm | - | 171 W/m² | - |
| 1777934516 | 21.11° C | 57% | 1059.6 hPa | 0 mm | - | 197 W/m² | - |
| 1777934213 | 21.11° C | 56% | 1059.5 hPa | 0 mm | - | 193 W/m² | - |
| 1777933908 | 21.11° C | 57% | 1059.6 hPa | 0 mm | - | 247 W/m² | - |
| 1777933606 | 21.11° C | 57% | 1059.7 hPa | 0 mm | - | 209 W/m² | - |
| 1777933302 | 21.67° C | 54% | 1059.9 hPa | 0 mm | - | 285 W/m² | - |
| 1777933000 | 21.67° C | 54% | 1059.7 hPa | 0 mm | - | 284 W/m² | - |
| 1777932697 | 21.67° C | 55% | 1059.8 hPa | 0 mm | - | 356 W/m² | - |
| 1777932393 | 22.22° C | 52% | 1059.6 hPa | 0 mm | - | 384 W/m² | - |
| 1777932091 | 22.22° C | 54% | 1059.9 hPa | 0 mm | - | 444 W/m² | - |
| 1777931787 | 21.67° C | 53% | 1059.9 hPa | 0 mm | - | 454 W/m² | - |
| 1777931485 | 21.67° C | 52% | 1060.2 hPa | 0 mm | - | 483 W/m² | - |
| 1777931180 | 22.22° C | 52% | 1060.1 hPa | 0 mm | - | 441 W/m² | - |
| 1777930877 | 22.22° C | 53% | 1060.2 hPa | 0 mm | - | 530 W/m² | - |
| 1777930573 | 21.67° C | 55% | 1060.5 hPa | 0 mm | - | 477 W/m² | - |
| 1777930270 | 21.67° C | 52% | 1060.5 hPa | 0 mm | - | 534 W/m² | - |
* Rain latest hour (hover to see other rain measurements)
** Current wind speed in m/s (hover to see current wind gust speed)